FW5138 Weather Reports


time (UTC)temp
C
wind
direction
speed
KPH
gust
KPH
rain 1hr
cm
rain 24hr
cm
rain mn
cm
humidity
%
barometer
mb
20260504220008 11 280 22.5 35.4 0.00 0.00 0.00 37 1008.1
20260504214507 11 280 22.5 46.7 0.00 0.00 0.00 37 1008.4
20260504213009 11 280 22.5 38.6 0.00 0.00 0.00 37 1008.3
20260504211514 11 280 20.9 37.0 0.00 0.00 0.00 36 1008.4
20260504210005 11 280 25.7 38.6 0.00 0.00 0.00 36 1008.4
20260504204508 11 280 24.1 35.4 0.00 0.00 0.00 36 1008.5
20260504203004 11 280 29.0 37.0 0.00 0.00 0.00 35 1008.5
20260504201504 11 280 27.4 38.6 0.00 0.00 0.00 36 1008.5
20260504200002 11 280 29.0 37.0 0.00 0.00 0.00 36 1008.5
20260504194501 11 280 27.4 46.7 0.00 0.00 0.00 36 1008.6
20260504193001 11 280 20.9 38.6 0.00 0.00 0.00 37 1008.5
20260504191501 11 280 27.4 38.6 0.00 0.00 0.00 37 1008.4
20260504190059 11 280 22.5 37.0 0.00 0.00 0.00 38 1008.4
20260504184602 11 280 27.4 40.2 0.00 0.00 0.00 40 1008.4
20260504183104 11 280 27.4 38.6 0.00 0.00 0.00 39 1008.3
20260504181556 11 280 22.5 35.4 0.00 0.00 0.00 42 1008.3
20260504180106 10 280 22.5 38.6 0.00 0.00 0.00 46 1008.4
20260504174552 10 280 29.0 37.0 0.00 0.00 0.00 46 1008.6
20260504173102 10 280 22.5 33.8 0.00 0.00 0.00 50 1008.7
20260504171548 10 280 16.1 25.7 0.00 0.00 0.00 55 1008.6
20260504081541 6 280 0.0 8.0 0.00 0.00 0.00 73 1001.9
20260504050010 10 280 3.2 4.8 0.00 0.00 0.00 65 1002.5
20260504044514 11 280 3.2 11.3 0.00 0.00 0.00 63 1002.7
20260504043013 11 280 6.4 12.9 0.00 0.00 0.00 62 1003.0
20260504041532 11 280 6.4 8.0 0.00 0.00 0.00 63 1003.2
20260504040015 11 280 6.4 8.0 0.00 0.00 0.00 60 1003.2
20260504034510 13 280 1.6 6.4 0.00 0.00 0.00 55 1003.0
20260504033008 13 280 1.6 6.4 0.00 0.00 0.00 53 1002.9
20260504031508 15 280 6.4 14.5 0.00 0.00 0.00 51 1003.0
20260504030006 13 280 4.8 9.7 0.00 0.00 0.00 54 1002.7
20260504024505 14 280 1.6 6.4 0.00 0.00 0.00 53 1002.9
20260504023005 15 280 3.2 6.4 0.00 0.00 0.00 50 1003.0
20260504021504 15 280 3.2 9.7 0.00 0.00 0.00 47 1002.9
20260504020005 16 280 4.8 9.7 0.00 0.00 0.00 46 1002.9
20260504014602 17 280 4.8 11.3 0.00 0.00 0.00 45 1003.2
20260504013126 17 280 3.2 8.0 0.00 0.00 0.00 43 1003.2
20260504011557 18 280 4.8 11.3 0.00 0.00 0.00 42 1003.4
20260504010058 18 280 4.8 9.7 0.00 0.00 0.00 40 1003.8
20260504004555 19 280 8.0 12.9 0.00 0.00 0.00 38 1003.9
20260504003053 20 280 6.4 12.9 0.00 0.00 0.00 37 1004.2
20260504001553 21 280 8.0 19.3 0.00 0.00 0.00 35 1004.4
20260504000050 21 280 9.7 22.5 0.00 0.00 0.00 32 1004.3
20260503234548 20 280 16.1 30.6 0.00 0.00 0.00 33 1004.7
20260503233046 21 280 11.3 27.4 0.00 0.00 0.00 29 1004.8
20260503231543 21 280 19.3 29.0 0.00 0.00 0.00 28 1005.2
20260503230042 22 280 9.7 19.3 0.00 0.00 0.00 30 1005.2
20260503224538 21 280 9.7 20.9 0.00 0.00 0.00 28 1005.2
20260503223036 21 280 16.1 24.1 0.00 0.00 0.00 29 1005.6
20260503221533 21 280 9.7 20.9 0.00 0.00 0.00 29 1005.8